This is the latest recevied weather packets stored in our database for station/object KC1TEM-13. If no packets are shown the sender has not sent any weather packets the latest 10 day(s).
| Time | Temp. | Humidity | Pressure | Rain* | Wind** | Luminosity | Snow |
|---|---|---|---|---|---|---|---|
| 1788472761 | 21.67° C | 87% | 1012.8 hPa | 0 mm | - | 63 W/m² | - |
| 1788472459 | 21.67° C | 87% | 1012.6 hPa | 0 mm | - | 40 W/m² | - |
| 1788472156 | 22.22° C | 85% | 1012.6 hPa | 0 mm | - | 40 W/m² | - |
| 1788471853 | 22.22° C | 85% | 1012.7 hPa | 0 mm | - | 48 W/m² | - |
| 1788471552 | 22.22° C | 86% | 1012.8 hPa | 0 mm | - | 48 W/m² | - |
| 1788471248 | 22.78° C | 86% | 1012.6 hPa | 0 mm | - | 45 W/m² | - |
| 1788470943 | 22.78° C | 84% | 1012.6 hPa | 0 mm | - | 48 W/m² | - |
| 1788470639 | 23.33° C | 82% | 1012.5 hPa | 0 mm | - | 51 W/m² | - |
| 1788470339 | 23.89° C | 78% | 1012.8 hPa | 0 mm | - | 63 W/m² | - |
| 1788470035 | 24.44° C | 78% | 1012.8 hPa | 0 mm | - | 107 W/m² | - |
| 1788469731 | 25° C | 75% | 1012.6 hPa | 0 mm | - | 209 W/m² | - |
| 1788469431 | 24.44° C | 77% | 1012.6 hPa | 0 mm | - | 218 W/m² | - |
| 1788469130 | 24.44° C | 75% | 1012.5 hPa | 0 mm | - | 234 W/m² | - |
| 1788468830 | 24.44° C | 75% | 1012.6 hPa | 0 mm | - | 254 W/m² | - |
| 1788468525 | 23.89° C | 78% | 1012.5 hPa | 0 mm | - | 274 W/m² | - |
| 1788468221 | 23.33° C | 81% | 1012.7 hPa | 0 mm | - | 359 W/m² | - |
| 1788467917 | 23.33° C | 83% | 1012.6 hPa | 0 mm | - | 319 W/m² | - |
| 1788467612 | 22.78° C | 81% | 1012.7 hPa | 0 mm | - | 246 W/m² | - |
| 1788467311 | 22.78° C | 83% | 1012.7 hPa | 0 mm | - | 166 W/m² | - |
| 1788467008 | 22.78° C | 83% | 1012.8 hPa | 0 mm | - | 199 W/m² | - |
| 1788466707 | 22.22° C | 87% | 1012.9 hPa | 0 mm | - | 243 W/m² | - |
| 1788466403 | 21.67° C | 88% | 1012.9 hPa | 0 mm | - | 225 W/m² | - |
| 1788466101 | 21.67° C | 85% | 1012.9 hPa | 0 mm | - | 197 W/m² | - |
| 1788465797 | 21.67° C | 86% | 1013 hPa | 0 mm | - | 153 W/m² | - |
| 1788465492 | 22.22° C | 83% | 1013.1 hPa | 0 mm | - | 205 W/m² | - |
* Rain latest hour (hover to see other rain measurements)
** Current wind speed in m/s (hover to see current wind gust speed)